This is the latest recevied weather packets stored in our database for station/object KD5HIA. If no packets are shown the sender has not sent any weather packets the latest 10 day(s).
| Time | Temp. | Humidity | Pressure | Rain* | Wind** | Luminosity | Snow |
|---|---|---|---|---|---|---|---|
| 1777315516 | 33.33° C | 24% | 1010 hPa | 0 mm | - | 836 W/m² | - |
| 1777314917 | 33.89° C | 24% | 1010 hPa | 0 mm | - | 757 W/m² | - |
| 1777314317 | 33.33° C | 25% | 1010.2 hPa | 0 mm | - | 891 W/m² | - |
| 1777313717 | 33.33° C | 24% | 1010.2 hPa | 0 mm | - | 885 W/m² | - |
| 1777313116 | 32.78° C | 25% | 1010.3 hPa | 0 mm | - | 895 W/m² | - |
| 1777312517 | 32.78° C | 26% | 1010.6 hPa | 0 mm | - | 868 W/m² | - |
| 1777311917 | 32.78° C | 25% | 1010.7 hPa | 0 mm | - | 865 W/m² | - |
| 1777311317 | 32.78° C | 28% | 1010.8 hPa | 0 mm | - | 856 W/m² | - |
| 1777310717 | 32.22° C | 28% | 1010.7 hPa | 0 mm | - | 831 W/m² | - |
| 1777310117 | 32.22° C | 32% | 1010.9 hPa | 0 mm | - | 812 W/m² | - |
| 1777309517 | 31.67° C | 30% | 1011 hPa | 0 mm | - | 797 W/m² | - |
| 1777308917 | 31.11° C | 35% | 1010.9 hPa | 0 mm | - | 770 W/m² | - |
| 1777308316 | 31.11° C | 34% | 1010.9 hPa | 0 mm | - | 757 W/m² | - |
| 1777307717 | 30.56° C | 39% | 1011 hPa | 0 mm | - | 727 W/m² | - |
| 1777307116 | 30.56° C | 40% | 1011 hPa | 0 mm | - | 706 W/m² | - |
| 1777306517 | 30.56° C | 45% | 1011 hPa | 0 mm | - | 679 W/m² | - |
| 1777305917 | 30° C | 47% | 1011 hPa | 0 mm | - | 656 W/m² | - |
| 1777305317 | 29.44° C | 46% | 1010.8 hPa | 0 mm | - | 638 W/m² | - |
| 1777304716 | 28.89° C | 51% | 1010.7 hPa | 0 mm | - | 614 W/m² | - |
| 1777304117 | 28.33° C | 51% | 1010.6 hPa | 0 mm | - | 581 W/m² | - |
| 1777303517 | 28.33° C | 60% | 1010.6 hPa | 0 mm | - | 542 W/m² | - |
| 1777302917 | 27.78° C | 64% | 1010.5 hPa | 0 mm | - | 513 W/m² | - |
| 1777302316 | 27.78° C | 66% | 1010.3 hPa | 0 mm | - | 455 W/m² | - |
| 1777301717 | 27.22° C | 70% | 1010.2 hPa | 0 mm | - | 388 W/m² | - |
| 1777301117 | 26.67° C | 70% | 1010.3 hPa | 0 mm | - | 341 W/m² | - |
* Rain latest hour (hover to see other rain measurements)
** Current wind speed in m/s (hover to see current wind gust speed)